• In Deutschland
  • Länderverzeichnis
  • Für 7 Tage
  • Wassertemperatur
  • Satellitenkarten
  • Wetterkarte
  • Widgets
  • user-avatar
    Anmelden

    Stündliche Wetter Janina

    Heute, 22 Februar, Donnerstag

    Zeit Temperatur Niederschläge Wind Luftdruck Luftfeuchtigkeit
    00:00 +4°C° 1 mm 2 m/S 678 mmHg 94%
    01:00 +4°C° 0 mm 2 m/S 678 mmHg 93%
    02:00 +4°C° 0,5 mm 2 m/S 678 mmHg 93%
    03:00 +4°C° 0,5 mm 2 m/S 678 mmHg 94%
    04:00 +4°C° 0,5 mm 2 m/S 678 mmHg 94%
    05:00 +4°C° 0,1 mm 2 m/S 678 mmHg 93%
    06:00 +4°C° 0,1 mm 1 m/S 678 mmHg 93%
    07:00 +4°C° 0 mm 2 m/S 679 mmHg 93%
    08:00 +5°C° 0 mm 2 m/S 679 mmHg 89%
    09:00 +6°C° 0 mm 2 m/S 680 mmHg 84%
    10:00 +7°C° 0 mm 2 m/S 680 mmHg 80%
    11:00 +8°C° 0,1 mm 2 m/S 680 mmHg 77%
    12:00 +8°C° 0,1 mm 2 m/S 680 mmHg 74%
    13:00 +9°C° 0 mm 2 m/S 680 mmHg 74%
    14:00 +9°C° 0,1 mm 2 m/S 680 mmHg 76%
    15:00 +8°C° 0,1 mm 2 m/S 680 mmHg 77%
    16:00 +8°C° 0,1 mm 2 m/S 680 mmHg 78%
    17:00 +7°C° 0,1 mm 2 m/S 681 mmHg 83%
    18:00 +6°C° 0,1 mm 2 m/S 681 mmHg 87%
    19:00 +6°C° 0,1 mm 1 m/S 681 mmHg 92%
    20:00 +5°C° 0 mm 2 m/S 681 mmHg 92%
    21:00 +5°C° 0 mm 2 m/S 681 mmHg 92%
    22:00 +5°C° 0 mm 2 m/S 681 mmHg 93%
    23:00 +4°C° 0 mm 2 m/S 681 mmHg 92%

    Morgen, 23 Februar, Freitag

    Zeit Temperatur Niederschläge Wind Luftdruck Luftfeuchtigkeit
    00:00 +4°C° 0 mm 2 m/S 681 mmHg 92%
    01:00 +4°C° 0 mm 2 m/S 681 mmHg 92%
    02:00 +4°C° 0 mm 2 m/S 681 mmHg 92%
    03:00 +4°C° 0 mm 2 m/S 681 mmHg 92%
    04:00 +4°C° 0 mm 2 m/S 680 mmHg 92%
    05:00 +4°C° 0 mm 2 m/S 680 mmHg 92%
    06:00 +4°C° 0 mm 2 m/S 680 mmHg 91%
    07:00 +4°C° 0 mm 2 m/S 680 mmHg 91%
    08:00 +5°C° 0 mm 2 m/S 681 mmHg 85%
    09:00 +7°C° 0 mm 2 m/S 681 mmHg 80%
    10:00 +8°C° 0 mm 2 m/S 682 mmHg 74%
    11:00 +9°C° 0 mm 3 m/S 681 mmHg 72%
    12:00 +9°C° 0 mm 3 m/S 681 mmHg 69%
    13:00 +10°C° 0 mm 3 m/S 681 mmHg 66%
    14:00 +10°C° 0 mm 3 m/S 681 mmHg 69%
    15:00 +9°C° 0 mm 3 m/S 681 mmHg 71%
    16:00 +9°C° 0 mm 3 m/S 681 mmHg 73%
    17:00 +8°C° 0 mm 3 m/S 680 mmHg 77%
    18:00 +7°C° 0 mm 3 m/S 680 mmHg 82%
    19:00 +4°C° 0 mm 3 m/S 680 mmHg 86%
    20:00 +4°C° 0 mm 3 m/S 680 mmHg 87%
    21:00 +4°C° 0 mm 3 m/S 680 mmHg 88%
    22:00 +4°C° 0 mm 3 m/S 680 mmHg 88%
    23:00 +4°C° 0 mm 3 m/S 680 mmHg 88%

    übermorgen, 24 Februar, Samstag

    Zeit Temperatur Niederschläge Wind Luftdruck Luftfeuchtigkeit
    00:00 +4°C° 0 mm 3 m/S 679 mmHg 88%
    01:00 +4°C° 0 mm 3 m/S 679 mmHg 88%
    02:00 +4°C° 0,1 mm 3 m/S 679 mmHg 88%
    03:00 +4°C° 0,1 mm 3 m/S 678 mmHg 88%
    04:00 +4°C° 0,1 mm 3 m/S 678 mmHg 89%
    05:00 +5°C° 1,5 mm 2 m/S 678 mmHg 91%
    06:00 +5°C° 1,5 mm 2 m/S 678 mmHg 93%
    07:00 +4°C° 1,5 mm 2 m/S 678 mmHg 96%
    08:00 +5°C° 1,6 mm 2 m/S 678 mmHg 94%
    09:00 +5°C° 1,6 mm 2 m/S 679 mmHg 93%
    10:00 +5°C° 1,6 mm 2 m/S 679 mmHg 92%
    11:00 +7°C° 0,7 mm 1 m/S 679 mmHg 90%
    12:00 +7°C° 0,7 mm 1 m/S 679 mmHg 87%
    13:00 +7°C° 0,7 mm 1 m/S 679 mmHg 84%
    14:00 +7°C° 0,4 mm 1 m/S 679 mmHg 84%
    15:00 +7°C° 0,4 mm 1 m/S 679 mmHg 84%
    16:00 +7°C° 0,4 mm 1 m/S 679 mmHg 83%
    17:00 +7°C° 0,2 mm 1 m/S 679 mmHg 86%
    18:00 +5°C° 0,2 mm 0 m/S 679 mmHg 89%
    19:00 +4°C° 0,2 mm 0 m/S 679 mmHg 92%
    20:00 +4°C° 0,2 mm 0 m/S 680 mmHg 93%
    21:00 +4°C° 0,2 mm 0 m/S 680 mmHg 94%
    22:00 +4°C° 0,2 mm 0 m/S 680 mmHg 94%
    23:00 +5°C° 0,3 mm 1 m/S 680 mmHg 95%

    25 Februar, Sonntag

    Zeit Temperatur Niederschläge Wind Luftdruck Luftfeuchtigkeit
    00:00 +5°C° 0,3 mm 1 m/S 680 mmHg 95%
    01:00 +4°C° 0,3 mm 1 m/S 680 mmHg 96%
    02:00 +4°C° 0,3 mm 1 m/S 680 mmHg 96%
    03:00 +4°C° 0,3 mm 1 m/S 680 mmHg 96%
    04:00 +4°C° 0,3 mm 1 m/S 680 mmHg 96%
    05:00 +4°C° 0,1 mm 1 m/S 680 mmHg 95%
    06:00 +4°C° 0,1 mm 1 m/S 680 mmHg 95%
    07:00 +4°C° 0,1 mm 1 m/S 680 mmHg 95%
    08:00 +5°C° 0,1 mm 1 m/S 681 mmHg 89%
    09:00 +5°C° 0,1 mm 2 m/S 681 mmHg 84%
    10:00 +6°C° 0,1 mm 2 m/S 681 mmHg 79%
    11:00 +7°C° 0,2 mm 2 m/S 681 mmHg 78%
    12:00 +7°C° 0,2 mm 2 m/S 681 mmHg 76%
    13:00 +7°C° 0,2 mm 2 m/S 681 mmHg 75%
    14:00 +7°C° 0,5 mm 2 m/S 680 mmHg 78%
    15:00 +6°C° 0,5 mm 2 m/S 680 mmHg 81%
    16:00 +6°C° 0,5 mm 2 m/S 680 mmHg 84%
    17:00 +5°C° 0,7 mm 2 m/S 680 mmHg 86%
    18:00 +5°C° 0,7 mm 2 m/S 680 mmHg 89%
    19:00 +4°C° 0,7 mm 2 m/S 680 mmHg 91%
    20:00 +4°C° 0,8 mm 2 m/S 679 mmHg 91%
    21:00 +4°C° 0,8 mm 2 m/S 679 mmHg 91%
    22:00 +4°C° 0,8 mm 2 m/S 679 mmHg 91%
    23:00 +2°C° 1 mm 3 m/S 678 mmHg 91%

    26 Februar, Montag

    Zeit Temperatur Niederschläge Wind Luftdruck Luftfeuchtigkeit
    00:00 +2°C° 1 mm 3 m/S 678 mmHg 91%
    01:00 +2°C° 1 mm 3 m/S 677 mmHg 91%
    02:00 +2°C° 1,4 mm 3 m/S 676 mmHg 91%
    03:00 +1°C° 1,4 mm 4 m/S 675 mmHg 91%
    04:00 +1°C° 1,4 mm 4 m/S 674 mmHg 91%
    05:00 +1°C° 1,8 mm 4 m/S 674 mmHg 91%
    06:00 0°C° 1,8 mm 4 m/S 673 mmHg 91%
    07:00 0°C° 1,8 mm 4 m/S 672 mmHg 91%
    08:00 0°C° 3,4 mm 4 m/S 672 mmHg 91%
    09:00 +1°C° 3,4 mm 3 m/S 673 mmHg 92%
    10:00 +1°C° 3,4 mm 3 m/S 673 mmHg 92%
    11:00 +2°C° 0,8 mm 3 m/S 673 mmHg 91%
    12:00 +2°C° 0,8 mm 3 m/S 673 mmHg 90%
    13:00 +3°C° 0,8 mm 3 m/S 673 mmHg 89%
    14:00 +2°C° 0,9 mm 3 m/S 673 mmHg 90%
    15:00 +2°C° 0,9 mm 3 m/S 673 mmHg 91%
    16:00 +1°C° 0,9 mm 3 m/S 673 mmHg 92%
    17:00 +1°C° 0,9 mm 3 m/S 674 mmHg 93%
    18:00 0°C° 0,9 mm 3 m/S 674 mmHg 93%
    19:00 0°C° 0,9 mm 3 m/S 674 mmHg 93%
    20:00 +1°C° 0,3 mm 2 m/S 675 mmHg 94%
    21:00 -1°C° 0,3 mm 2 m/S 675 mmHg 94%
    22:00 +1°C° 0,3 mm 1 m/S 676 mmHg 94%
    23:00 +2°C° 0,3 mm 1 m/S 676 mmHg 94%

    27 Februar, Dienstag

    Zeit Temperatur Niederschläge Wind Luftdruck Luftfeuchtigkeit
    00:00 +2°C° 0,3 mm 1 m/S 676 mmHg 94%
    01:00 +2°C° 0,3 mm 1 m/S 676 mmHg 95%
    02:00 +1°C° 0,2 mm 1 m/S 676 mmHg 95%
    03:00 -1°C° 0,2 mm 2 m/S 676 mmHg 95%
    04:00 -1°C° 0,2 mm 2 m/S 675 mmHg 95%
    05:00 -1°C° 0,1 mm 2 m/S 676 mmHg 94%
    06:00 -1°C° 0,1 mm 2 m/S 676 mmHg 93%
    07:00 -1°C° 0,1 mm 2 m/S 676 mmHg 93%
    08:00 +1°C° 0,1 mm 2 m/S 677 mmHg 91%
    09:00 +2°C° 0,1 mm 2 m/S 677 mmHg 89%
    10:00 +3°C° 0,1 mm 2 m/S 678 mmHg 87%
    11:00 +3°C° 0,1 mm 2 m/S 678 mmHg 85%
    12:00 +3°C° 0,1 mm 2 m/S 678 mmHg 82%
    13:00 +4°C° 0,1 mm 2 m/S 678 mmHg 80%
    14:00 +4°C° 0,1 mm 2 m/S 678 mmHg 81%
    15:00 +3°C° 0,1 mm 2 m/S 679 mmHg 82%
    16:00 +3°C° 0,1 mm 2 m/S 679 mmHg 82%
    17:00 +3°C° 0 mm 2 m/S 679 mmHg 85%
    18:00 +3°C° 0 mm 1 m/S 679 mmHg 87%
    19:00 +2°C° 0 mm 1 m/S 679 mmHg 90%
    20:00 +2°C° 0,1 mm 1 m/S 679 mmHg 90%
    21:00 +1°C° 0,1 mm 1 m/S 680 mmHg 90%
    22:00 +1°C° 0,1 mm 1 m/S 680 mmHg 90%
    23:00 +1°C° 0,2 mm 1 m/S 680 mmHg 90%
    Mehr zeigen